Voltar ao catálogo

SL-8 R/B

AtivoPO
NORAD 22488·ROCKET BODY·🇷🇺 Russia

Lançado Feb 9, 1993 de Plesetsk Cosmodrome

Loading…

Próximas Passagens (próximas 24 horas)

TLE

AtualizadoSource: Space-Track

Época: Sep 14, 2026, 12:44 UTC

1 22488U 93008B   26257.53056667 -.00000063  00000-0 -78187-4 0  9990
2 22488  82.9378  85.4180 0026367 120.3006 257.3896 13.78013983688909

Acompanhe SL-8 R/B em tempo real com AllMySat

Download on the App Store